Change the Weather History Date:

Tuesday, May 14, 2013

  Actual Average (KEFC) Record (KEFC)
Temperature  
Mean Temperature 65 °F -  
Max Temperature 80 °F 71 °F 89 °F (1976)
Min Temperature 50 °F 42 °F 26 °F (1981)
Growing Degree Days 15 (Base 50)    
Moisture  
Dew Point 41 °F    
Average Humidity 40    
Maximum Humidity 59    
Minimum Humidity 20    
Precipitation  
Precipitation 0.00 in - - ()
Sea Level Pressure  
Sea Level Pressure 29.89 in    
Wind  
Wind Speed 15 mph (NW)    
Max Wind Speed 24 mph    
Max Gust Speed 34 mph    
Visibility 10 miles    
Events      
Averages and records for this station are not official NWS values.
T = Trace of Precipitation, MM = Missing Value Source: NWS Daily Summary

Daily Weather History Graph

Daily Weather History Graph

Search for Another Location

Airport or City:

Trip Planner

Search our weather history database for the weather conditions in past years. The results will help you decide how hot, cold, wet, or windy it might be!

Date:

Astronomy

May. 14, 2013 Rise Set
Actual Time 6:28 AM CDT 9:15 PM CDT
Civil Twilight 5:54 AM CDT 9:49 PM CDT
Nautical Twilight 5:12 AM CDT 10:31 PM CDT
Astronomical Twilight 4:22 AM CDT 11:21 PM CDT
Moon 10:10 AM CDT (5/14) 12:24 AM CDT (5/14)
Length of Visible Light 15h 54m
Length of Day
14h 46m
Waxing Crescent, 19% of the Moon is Illuminated
May 14
Waxing Crescent
May 17
First Quarter
May 24
Full
May 31
Last Quarter
Jun 8
New

Hourly Weather History & Observations

Time (CDT) Temp. Dew Point Humidity Pressure Visibility Wind Dir Wind Speed Gust Speed Precip Events Conditions
12:15 AM 75.2 °F 37.4 °F 25% 29.78 in 10.0 mi SSW 18.4 mph 23.0 mph N/A   Clear
12:35 AM 77.0 °F 37.4 °F 24% 29.77 in 10.0 mi SSW 18.4 mph 25.3 mph N/A   Clear
12:55 AM 77.0 °F 37.4 °F 24% 29.76 in 10.0 mi SSW 18.4 mph - N/A   Clear
1:15 AM 77.0 °F 37.4 °F 24% 29.76 in 10.0 mi SSW 17.3 mph 21.9 mph N/A   Clear
1:35 AM 77.0 °F 37.4 °F 24% 29.75 in 10.0 mi SSW 21.9 mph 27.6 mph N/A   Clear
1:55 AM 77.0 °F 35.6 °F 22% 29.75 in 10.0 mi SSW 24.2 mph 31.1 mph N/A   Clear
2:15 AM 78.8 °F 35.6 °F 21% 29.74 in 10.0 mi SW 19.6 mph 32.2 mph N/A   Clear
2:35 AM 80.6 °F 35.6 °F 20% 29.74 in 10.0 mi SW 19.6 mph 33.4 mph N/A   Clear
2:55 AM 78.8 °F 35.6 °F 21% 29.74 in 10.0 mi SW 20.7 mph 33.4 mph N/A   Clear
3:15 AM 77.0 °F 35.6 °F 22% 29.74 in 10.0 mi SW 20.7 mph 29.9 mph N/A   Clear
3:35 AM 77.0 °F 33.8 °F 21% 29.74 in 10.0 mi WSW 19.6 mph 27.6 mph N/A   Clear
3:55 AM 75.2 °F 33.8 °F 22% 29.75 in 10.0 mi WSW 19.6 mph 24.2 mph N/A   Clear
4:15 AM 75.2 °F 33.8 °F 22% 29.76 in 10.0 mi WSW 13.8 mph 18.4 mph N/A   Clear
4:35 AM 73.4 °F 33.8 °F 23% 29.76 in 10.0 mi WSW 11.5 mph - N/A   Clear
4:55 AM 73.4 °F 33.8 °F 23% 29.81 in 10.0 mi NW 17.3 mph 34.5 mph N/A   Clear
5:15 AM 69.8 °F 35.6 °F 28% 29.83 in 10.0 mi WNW 16.1 mph 24.2 mph N/A   Clear
5:35 AM 68.0 °F 39.2 °F 35% 29.84 in 10.0 mi WNW 16.1 mph 25.3 mph N/A   Clear
5:55 AM 68.0 °F 41.0 °F 37% 29.86 in 10.0 mi WNW 16.1 mph 23.0 mph N/A   Clear
6:15 AM 66.2 °F 44.6 °F 46% 29.88 in 10.0 mi WNW 12.7 mph 24.2 mph N/A   Clear
6:35 AM 64.4 °F 44.6 °F 49% 29.90 in 10.0 mi WNW 18.4 mph 24.2 mph N/A   Clear
6:55 AM 64.4 °F 46.4 °F 52% 29.91 in 10.0 mi WNW 13.8 mph - N/A   Clear
7:15 AM 64.4 °F 46.4 °F 52% 29.92 in 10.0 mi WNW 12.7 mph - N/A   Clear
7:35 AM 64.4 °F 48.2 °F 56% 29.93 in 10.0 mi West 11.5 mph 17.3 mph N/A   Clear
7:55 AM 64.4 °F 48.2 °F 56% 29.95 in 10.0 mi WNW 12.7 mph 18.4 mph N/A   Clear
8:15 AM 64.4 °F 48.2 °F 56% 29.95 in 10.0 mi WNW 11.5 mph 17.3 mph N/A   Clear
8:35 AM 64.4 °F 48.2 °F 56% 29.96 in 10.0 mi WNW 13.8 mph 20.7 mph N/A   Clear
8:55 AM 64.4 °F 48.2 °F 56% 29.96 in 10.0 mi NW 10.4 mph - N/A   Clear
9:15 AM 64.4 °F 50.0 °F 59% 29.97 in 10.0 mi WNW 12.7 mph 20.7 mph N/A   Clear
9:35 AM 64.4 °F 48.2 °F 56% 29.97 in 10.0 mi NW 11.5 mph 16.1 mph N/A   Clear
9:55 AM 64.4 °F 48.2 °F 56% 29.98 in 10.0 mi NNW 10.4 mph - N/A   Clear
10:15 AM 64.4 °F 48.2 °F 56% 29.97 in 10.0 mi NNW 15.0 mph 19.6 mph N/A   Clear
10:35 AM 66.2 °F 46.4 °F 49% 29.97 in 10.0 mi NNW 11.5 mph 18.4 mph N/A   Clear
10:55 AM 66.2 °F 48.2 °F 52% 29.96 in 10.0 mi NW 13.8 mph 18.4 mph N/A   Clear
11:15 AM 66.2 °F 48.2 °F 52% 29.96 in 10.0 mi WNW 11.5 mph 16.1 mph N/A   Clear
11:35 AM 66.2 °F 46.4 °F 49% 29.96 in 10.0 mi WNW 10.4 mph 20.7 mph N/A   Clear
11:55 AM 68.0 °F 48.2 °F 49% 29.96 in 10.0 mi NNW 10.4 mph - N/A   Clear
12:15 PM 68.0 °F 46.4 °F 46% 29.96 in 10.0 mi NNW 12.7 mph 17.3 mph N/A   Clear
12:35 PM 68.0 °F 48.2 °F 49% 29.96 in 10.0 mi NW 13.8 mph 17.3 mph N/A   Clear
12:55 PM 69.8 °F 46.4 °F 43% 29.96 in 10.0 mi NNW 16.1 mph 23.0 mph N/A   Clear
1:15 PM 69.8 °F 46.4 °F 43% 29.95 in 10.0 mi NNW 13.8 mph 21.9 mph N/A   Clear
1:35 PM 69.8 °F 42.8 °F 38% 29.95 in 10.0 mi North 12.7 mph 20.7 mph N/A   Clear
1:55 PM 69.8 °F 41.0 °F 35% 29.95 in 10.0 mi NNW 13.8 mph 20.7 mph N/A   Clear
2:15 PM 71.6 °F 39.2 °F 31% 29.94 in 10.0 mi North 12.7 mph 20.7 mph N/A   Clear
2:35 PM 71.6 °F 39.2 °F 31% 29.94 in 10.0 mi NNW 13.8 mph 25.3 mph N/A   Clear
2:55 PM 71.6 °F 41.0 °F 33% 29.94 in 10.0 mi NW 11.5 mph 18.4 mph N/A   Clear
3:15 PM 71.6 °F 41.0 °F 33% 29.93 in 10.0 mi NW 10.4 mph 18.4 mph N/A   Clear
3:35 PM 71.6 °F 41.0 °F 33% 29.93 in 10.0 mi NNW 15.0 mph 20.7 mph N/A   Clear
3:55 PM 71.6 °F 41.0 °F 33% 29.93 in 10.0 mi North 16.1 mph 21.9 mph N/A   Clear
4:15 PM 71.6 °F 41.0 °F 33% 29.93 in 10.0 mi NNW 10.4 mph 16.1 mph N/A   Clear
4:35 PM 71.6 °F 41.0 °F 33% 29.92 in 10.0 mi NNW 5.8 mph 20.7 mph N/A   Clear
4:55 PM 71.6 °F 39.2 °F 31% 29.92 in 10.0 mi North 6.9 mph - N/A   Clear
5:15 PM 71.6 °F 39.2 °F 31% 29.91 in 10.0 mi NE 10.4 mph - N/A   Clear
5:35 PM 71.6 °F 39.2 °F 31% 29.91 in 10.0 mi NNE 6.9 mph - N/A   Clear
5:55 PM 71.6 °F 39.2 °F 31% 29.91 in 10.0 mi NNE 6.9 mph - N/A   Clear
6:15 PM 71.6 °F 39.2 °F 31% 29.91 in 10.0 mi NE 11.5 mph - N/A   Clear
6:35 PM 71.6 °F 39.2 °F 31% 29.90 in 10.0 mi ENE 10.4 mph - N/A   Clear
6:55 PM 71.6 °F 39.2 °F 31% 29.90 in 10.0 mi ENE 8.1 mph - N/A   Clear
7:15 PM 69.8 °F 39.2 °F 33% 29.90 in 10.0 mi ENE 9.2 mph - N/A   Clear
7:35 PM 68.0 °F 39.2 °F 35% 29.90 in 10.0 mi ENE 9.2 mph - N/A   Clear
7:55 PM 68.0 °F 39.2 °F 35% 29.90 in 10.0 mi ENE 8.1 mph - N/A   Clear
8:15 PM 66.2 °F 39.2 °F 37% 29.90 in 10.0 mi East 8.1 mph - N/A   Clear
8:35 PM 59.0 °F 41.0 °F 51% 29.90 in 10.0 mi ESE 6.9 mph - N/A   Clear
8:55 PM 57.2 °F 41.0 °F 55% 29.91 in 10.0 mi SE 5.8 mph - N/A   Clear
9:15 PM 55.4 °F 39.2 °F 54% 29.91 in 10.0 mi ESE 6.9 mph - N/A   Clear
9:35 PM 57.2 °F 37.4 °F 48% 29.92 in 10.0 mi ESE 9.2 mph - N/A   Clear
9:55 PM 53.6 °F 37.4 °F 54% 29.94 in 10.0 mi SE 9.2 mph - N/A   Clear
10:15 PM 51.8 °F 37.4 °F 58% 29.95 in 10.0 mi SE 6.9 mph - N/A   Clear
10:55 PM 53.6 °F 33.8 °F 47% 29.97 in 10.0 mi East 8.1 mph - N/A   Clear
11:15 PM 50.0 °F 35.6 °F 58% 29.97 in 10.0 mi ESE 9.2 mph - N/A   Clear
11:35 PM 50.0 °F 35.6 °F 58% 29.96 in 10.0 mi ESE 6.9 mph - N/A   Clear
11:55 PM 50.0 °F 35.6 °F 58% 29.97 in 10.0 mi SE 8.1 mph - N/A   Clear